Regional Weather Roundup
Issued by NWS

Home | Current Version | Previous Version | Graphics & Text | Print | Product List | Glossary On
Versions: 1 2 3 4 5 6 7 8 9 10 11 12 13 14 15 16 17 18 19 20 21 22 23 24 25 26 27
000
ASUS45 KCYS 281210
RWRWY

WYOMING REGIONAL WEATHER ROUNDUP
NATIONAL WEATHER SERVICE CHEYENNE WY
600 AM MDT FRI JUL 28 2017

NOTE:  "FAIR" INDICATES FEW OR NO CLOUDS BELOW 12,000 FEET
WITH NO SIGNIFICANT WEATHER AND/OR OBSTRUCTIONS TO VISIBILITY.

WYZ001-281300-
YELLOWSTONE NATIONAL PARK

CITY           SKY/WX    TMP DP  RH WIND       PRES   REMARKS
LK YELLOWSTONE   N/A     39  39 100 CALM      30.39R
6HR MIN TEMP:  39; 6HR MAX TEMP:  45;

W YELLOWSTONE  NOT AVBL

$$
WYZ002>013-054>058-071-098>099-281300-
NORTHERN WYOMING

CITY           SKY/WX    TMP DP  RH WIND       PRES   REMARKS
JACKSON        FAIR      43  43 100 N5        30.33R
CODY           FAIR      61  47  59 SW3       30.16R
GREYBULL       FAIR      62  49  62 SE5       30.08R
6HR MIN TEMP:  60; 6HR MAX TEMP:  72;

WORLAND        FAIR      59  48  67 S8        30.10R
6HR MIN TEMP:  57; 6HR MAX TEMP:  70;

SHERIDAN       FAIR      57  52  83 CALM      30.06R
6HR MIN TEMP:  55; 6HR MAX TEMP:  62;

BUFFALO        FAIR      62  47  57 W9        30.12R
6HR MIN TEMP:  57; 6HR MAX TEMP:  65;

GILLETTE       FAIR      61  57  87 S12       30.08R
6HR MIN TEMP:  61; 6HR MAX TEMP:  65;

HULETT         FAIR      59  55  88 SW5       30.12R
NEWCASTLE      FAIR      55  55 100 CALM      30.13R

$$
WYZ014>020-022>026-101>103-281300-
CENTRAL WYOMING

CITY           SKY/WX    TMP DP  RH WIND       PRES   REMARKS
BIG PINEY      FAIR      42  39  89 E3        30.32R
6HR MIN TEMP:  42; 6HR MAX TEMP:  56;

PINEDALE       FAIR      43  41  93 NW5       30.33R
DUBOIS         FAIR      45  39  81 W10       30.31R
LANDER         FAIR      56  45  66 E5        30.20R
6HR MIN TEMP:  53; 6HR MAX TEMP:  63;

RIVERTON       FAIR      58  46  64 W7        30.18R
6HR MIN TEMP:  56; 6HR MAX TEMP:  64;

CASPER         FAIR      54  53  97 SW10      30.17R
6HR MIN TEMP:  53; 6HR MAX TEMP:  68;

DOUGLAS        CLOUDY    60  57  89 S7        30.15S
6HR MIN TEMP:  58; 6HR MAX TEMP:  63;


$$
WYZ021-027>030-104>119-281300-
SOUTHERN WYOMING

CITY           SKY/WX    TMP DP  RH WIND       PRES   REMARKS
EVANSTON       FAIR      56  41  57 SE6       30.32S
6HR MIN TEMP:  54; 6HR MAX TEMP:  63;

KEMMERER         N/A     48  41  76 N10       30.33R
FORT BRIDGER   FAIR      52  41  67 NW6       30.33S
ROCK SPRINGS   FAIR      57  40  52 SW6       30.29R
6HR MIN TEMP:  56; 6HR MAX TEMP:  66;

RAWLINS        FAIR      55  48  77 CALM      30.27R
6HR MIN TEMP:  53; 6HR MAX TEMP:  62;

SARATOGA       FAIR      54  46  76 S5        30.28S
LARAMIE        FAIR      51  47  86 S7        30.28R
6HR MIN TEMP:  50; 6HR MAX TEMP:  59;

CHEYENNE       FOG       57  56  96 E5        30.21R VSB 1/4
6HR MIN TEMP:  56; 6HR MAX TEMP:  67;

TORRINGTON     CLOUDY    65  61  87 SE8       30.10R
6HR MIN TEMP:  62; 6HR MAX TEMP:  66;

PINE BLUFFS    CLOUDY    63  63 100 E6        30.17R

$$




USA.gov is the U.S. government's official web portal to all federal, state and local government web resources and services.